,,PA_Meas_PMT16A,,PR_Meas_QMR101_102,,RH_Meas_QMH101,,SR_Meas_QMS101,,TA_Meas_QMH101,,GenWind,,GenWind,
time,status,PA,status,PR,status,RH,status,SR,status,TA,status,DirAvg,status,SpdAvg,
2009-12-27, 00:00:04,VALID,917.484,VALID,0,VALID,97.6178,VALID,0,VALID,20.0133,VALID,120,VALID,0.78125,
2009-12-27, 00:01:04,VALID,917.47,VALID,0,VALID,97.6331,VALID,0,VALID,20.0328,VALID,120,VALID,0.775,
2009-12-27, 00:02:04,VALID,917.468,VALID,0,VALID,97.595,VALID,0,VALID,20.0133,VALID,122,VALID,0.974609,
2009-12-27, 00:03:04,VALID,917.442,VALID,0,VALID,97.6255,VALID,0,VALID,19.9938,VALID,122,VALID,0.978125,
2009-12-27, 00:04:04,VALID,917.458,VALID,0,VALID,97.6026,VALID,0,VALID,19.9938,VALID,123,VALID,0.951953,
2009-12-27, 00:05:04,VALID,917.429,VALID,0,VALID,97.6331,VALID,0,VALID,20.0133,VALID,123,VALID,0.520703,
2009-12-27, 00:06:04,VALID,917.399,VALID,0,VALID,97.6178,VALID,0,VALID,20.0133,VALID,123,VALID,0.259766,
2009-12-27, 00:07:04,VALID,917.4,VALID,0,VALID,97.6178,VALID,0,VALID,19.9938,VALID,123,VALID,0.349609,
2009-12-27, 00:08:04,VALID,917.392,VALID,0,VALID,97.6026,VALID,0,VALID,20.0133,VALID,123,VALID,0.566016,
2009-12-27, 00:09:04,VALID,917.416,VALID,0,VALID,97.6102,VALID,0,VALID,19.9938,VALID,123,VALID,0.748438,
2009-12-27, 00:10:04,VALID,917.401,VALID,0,VALID,97.6102,VALID,0,VALID,19.9938,VALID,123,VALID,0.405859,
2009-12-27, 00:11:04,VALID,917.403,VALID,0,VALID,97.6178,VALID,0,VALID,20.0133,VALID,123,VALID,0.350391,
2009-12-27, 00:12:04,VALID,917.415,VALID,0,VALID,97.6026,VALID,0,VALID,19.9743,VALID,124,VALID,0.678906,
2009-12-27, 00:13:04,VALID,917.384,VALID,0,VALID,97.6102,VALID,0,VALID,19.9533,VALID,124,VALID,0.744141,
2009-12-27, 00:14:04,VALID,917.334,VALID,0,VALID,97.6102,VALID,0,VALID,19.9743,VALID,124,VALID,0.5125,
2009-12-27, 00:15:04,VALID,917.358,VALID,0,VALID,97.6178,VALID,0,VALID,19.9548,VALID,124,VALID,0.60625,
2009-12-27, 00:16:04,VALID,917.338,VALID,0,VALID,97.6102,VALID,0,VALID,19.9533,VALID,124,VALID,0.721875,
2009-12-27, 00:17:04,VALID,917.357,VALID,0,VALID,97.5873,VALID,0,VALID,19.9338,VALID,124,VALID,0.530469,
2009-12-27, 00:18:04,VALID,917.315,VALID,0,VALID,97.595,VALID,0,VALID,19.9143,VALID,124,VALID,0.564844,
2009-12-27, 00:19:04,VALID,917.315,VALID,0,VALID,97.6102,VALID,0,VALID,19.9158,VALID,124,VALID,0.357031,
2009-12-27, 00:20:04,VALID,917.318,VALID,0,VALID,97.6026,VALID,0,VALID,19.8738,VALID,124,VALID,0.310547,
2009-12-27, 00:21:04,VALID,917.317,VALID,0,VALID,97.5797,VALID,0,VALID,19.8948,VALID,124,VALID,0.545313,
2009-12-27, 00:22:04,VALID,917.322,VALID,0,VALID,97.5797,VALID,0.107441,VALID,19.8753,VALID,124,VALID,0.613281,
2009-12-27, 00:23:04,VALID,917.323,VALID,0,VALID,97.5873,VALID,0,VALID,19.8558,VALID,124,VALID,0.365625,
2009-12-27, 00:24:04,VALID,917.319,VALID,0,VALID,97.5645,VALID,0,VALID,19.8768,VALID,124,VALID,0.546875,
2009-12-27, 00:25:04,VALID,917.301,VALID,0,VALID,97.5797,VALID,0,VALID,19.8558,VALID,124,VALID,0.528906,
2009-12-27, 00:26:04,VALID,917.296,VALID,0,VALID,97.5645,VALID,0.107441,VALID,19.8558,VALID,124,VALID,0.243359,
2009-12-27, 00:27:04,VALID,917.276,VALID,0,VALID,97.5721,VALID,0,VALID,19.8558,VALID,124,VALID,0.508984,
2009-12-27, 00:28:04,VALID,917.297,VALID,0,VALID,97.5797,VALID,0,VALID,19.8753,VALID,124,VALID,0.0617188,
2009-12-27, 00:29:04,VALID,917.29,VALID,0,VALID,97.5873,VALID,0,VALID,19.8948,VALID,124,VALID,0.0816406,
2009-12-27, 00:30:04,VALID,917.245,VALID,0,VALID,97.595,VALID,0,VALID,19.8948,VALID,124,VALID,0.0457031,
2009-12-27, 00:31:04,VALID,917.245,VALID,0,VALID,97.5797,VALID,0,VALID,19.8768,VALID,124,VALID,0.290625,
2009-12-27, 00:32:04,VALID,917.235,VALID,0,VALID,97.5492,VALID,0,VALID,19.8783,VALID,124,VALID,0.407813,
2009-12-27, 00:33:04,VALID,917.246,VALID,0,VALID,97.5569,VALID,0,VALID,19.8378,VALID,124,VALID,0.202344,
2009-12-27, 00:34:04,VALID,917.221,VALID,0,VALID,97.5721,VALID,0,VALID,19.8573,VALID,124,VALID,0.375781,
2009-12-27, 00:35:04,VALID,917.188,VALID,0,VALID,97.5492,VALID,0,VALID,19.8378,VALID,124,VALID,0.391016,
2009-12-27, 00:36:04,VALID,917.197,VALID,0,VALID,97.5645,VALID,0,VALID,19.8168,VALID,124,VALID,0.31875,
2009-12-27, 00:37:04,VALID,917.181,VALID,0,VALID,97.5645,VALID,0,VALID,19.7973,VALID,124,VALID,0.276172,
2009-12-27, 00:38:04,VALID,917.166,VALID,0,VALID,97.534,VALID,0,VALID,19.8183,VALID,124,VALID,0.356641,
2009-12-27, 00:39:04,VALID,917.172,VALID,0,VALID,97.5111,VALID,0,VALID,19.7793,VALID,124,VALID,0.378906,
2009-12-27, 00:40:04,VALID,917.153,VALID,0,VALID,97.5187,VALID,0,VALID,19.7598,VALID,124,VALID,0.327344,
2009-12-27, 00:41:04,VALID,917.11,VALID,0,VALID,97.5416,VALID,0,VALID,19.7583,VALID,124,VALID,0.232031,
2009-12-27, 00:42:04,VALID,917.093,VALID,0,VALID,97.5645,VALID,0,VALID,19.7598,VALID,124,VALID,0.308203,
2009-12-27, 00:43:04,VALID,917.079,VALID,0,VALID,97.5111,VALID,0,VALID,19.7793,VALID,124,VALID,0.291797,
2009-12-27, 00:44:04,VALID,917.084,VALID,0,VALID,97.5492,VALID,0,VALID,19.7193,VALID,124,VALID,0.0671875,
2009-12-27, 00:45:04,VALID,917.064,VALID,0,VALID,97.5797,VALID,0,VALID,19.7598,VALID,124,VALID,0.0125,
2009-12-27, 00:46:04,VALID,917.074,VALID,0,VALID,97.6178,VALID,0,VALID,19.7793,VALID,124,VALID,0.321484,
2009-12-27, 00:47:04,VALID,917.039,VALID,0,VALID,97.595,VALID,0,VALID,19.7988,VALID,124,VALID,0,
2009-12-27, 00:48:04,VALID,917.053,VALID,0,VALID,97.5721,VALID,0,VALID,19.7598,VALID,124,VALID,0,
2009-12-27, 00:49:04,VALID,917.032,VALID,0,VALID,97.5873,VALID,0,VALID,19.7793,VALID,124,VALID,0,
2009-12-27, 00:50:04,VALID,917.025,VALID,0,VALID,97.5645,VALID,0,VALID,19.7793,VALID,124,VALID,0.204688,
2009-12-27, 00:51:04,VALID,916.991,VALID,0,VALID,97.5416,VALID,0,VALID,19.7403,VALID,124,VALID,0.0921875,
2009-12-27, 00:52:04,VALID,916.971,VALID,0,VALID,97.5492,VALID,0,VALID,19.7403,VALID,124,VALID,0.249609,
2009-12-27, 00:53:04,VALID,916.95,VALID,0.2,VALID,97.5492,VALID,0,VALID,19.7208,VALID,124,VALID,0.189844,
2009-12-27, 00:54:04,VALID,916.972,VALID,0,VALID,97.5416,VALID,0,VALID,19.7013,VALID,124,VALID,0,
2009-12-27, 00:55:04,VALID,916.967,VALID,0,VALID,97.534,VALID,0,VALID,19.7208,VALID,124,VALID,0,
2009-12-27, 00:56:04,VALID,916.953,VALID,0,VALID,97.6026,VALID,0,VALID,19.7403,VALID,124,VALID,0,
2009-12-27, 00:57:04,VALID,916.975,VALID,0,VALID,97.6026,VALID,0,VALID,19.7403,VALID,124,VALID,0,
2009-12-27, 00:58:04,VALID,916.955,VALID,0,VALID,97.5569,VALID,0,VALID,19.7403,VALID,124,VALID,0,
2009-12-27, 00:59:04,VALID,916.956,VALID,0,VALID,97.595,VALID,0,VALID,19.7598,VALID,124,VALID,0,
2009-12-27, 01:00:04,VALID,916.984,VALID,0,VALID,97.5721,VALID,0,VALID,19.7793,VALID,124,VALID,0,
2009-12-27, 01:01:04,VALID,916.952,VALID,0,VALID,97.5264,VALID,0,VALID,19.7598,VALID,124,VALID,0,
2009-12-27, 01:02:04,VALID,916.967,VALID,0,VALID,97.5492,VALID,0,VALID,19.7403,VALID,124,VALID,0,
2009-12-27, 01:03:04,VALID,916.957,VALID,0,VALID,97.5797,VALID,0,VALID,19.7403,VALID,124,VALID,0.105469,
2009-12-27, 01:04:04,VALID,916.953,VALID,0,VALID,97.5569,VALID,0,VALID,19.7208,VALID,124,VALID,0.301172,
2009-12-27, 01:05:04,VALID,916.933,VALID,0,VALID,97.5645,VALID,0,VALID,19.7208,VALID,124,VALID,0.214844,
2009-12-27, 01:06:04,VALID,916.938,VALID,0,VALID,97.5873,VALID,0,VALID,19.7403,VALID,124,VALID,0.138672,
2009-12-27, 01:07:04,VALID,916.927,VALID,0,VALID,97.6178,VALID,0,VALID,19.7598,VALID,124,VALID,0.248437,
2009-12-27, 01:08:04,VALID,916.9,VALID,0,VALID,97.5721,VALID,0,VALID,19.7598,VALID,124,VALID,0.191797,
2009-12-27, 01:09:04,VALID,916.882,VALID,0,VALID,97.5492,VALID,0,VALID,19.7388,VALID,124,VALID,0,
2009-12-27, 01:10:04,VALID,916.881,VALID,0,VALID,97.5492,VALID,0,VALID,19.7403,VALID,124,VALID,0,
2009-12-27, 01:11:04,VALID,916.852,VALID,0,VALID,97.5111,VALID,0,VALID,19.6998,VALID,124,VALID,0.308594,
2009-12-27, 01:12:04,VALID,916.842,VALID,0,VALID,97.5264,VALID,0,VALID,19.7013,VALID,124,VALID,0.408984,
2009-12-27, 01:13:04,VALID,916.85,VALID,0,VALID,97.5187,VALID,0,VALID,19.6818,VALID,124,VALID,0.507422,
2009-12-27, 01:14:04,VALID,916.833,VALID,0,VALID,97.5416,VALID,0,VALID,19.6818,VALID,124,VALID,0.477344,
2009-12-27, 01:15:04,VALID,916.845,VALID,0,VALID,97.534,VALID,0,VALID,19.6818,VALID,124,VALID,0.600391,
2009-12-27, 01:16:04,VALID,916.826,VALID,0,VALID,97.5721,VALID,0,VALID,19.6818,VALID,124,VALID,0.633594,
2009-12-27, 01:17:04,VALID,916.812,VALID,0,VALID,97.5873,VALID,0,VALID,19.6818,VALID,124,VALID,0.574219,
2009-12-27, 01:18:04,VALID,916.82,VALID,0,VALID,97.5721,VALID,0,VALID,19.6818,VALID,124,VALID,0.271484,
2009-12-27, 01:19:04,VALID,916.798,VALID,0,VALID,97.5873,VALID,0,VALID,19.7013,VALID,124,VALID,0.129297,
2009-12-27, 01:20:04,VALID,916.797,VALID,0,VALID,97.5569,VALID,0,VALID,19.6818,VALID,124,VALID,0.294531,
2009-12-27, 01:21:04,VALID,916.78,VALID,0,VALID,97.5721,VALID,0,VALID,19.6623,VALID,124,VALID,0.549609,
2009-12-27, 01:22:04,VALID,916.789,VALID,0,VALID,97.5797,VALID,0,VALID,19.6413,VALID,124,VALID,0.436328,
2009-12-27, 01:23:04,VALID,916.77,VALID,0,VALID,97.5797,VALID,0,VALID,19.6608,VALID,124,VALID,0.501562,
2009-12-27, 01:24:04,VALID,916.777,VALID,0.2,VALID,97.5873,VALID,0,VALID,19.6623,VALID,124,VALID,0.521875,
2009-12-27, 01:25:04,VALID,916.748,VALID,0,VALID,97.595,VALID,0,VALID,19.6818,VALID,124,VALID,0.396875,
2009-12-27, 01:26:04,VALID,916.752,VALID,0,VALID,97.5873,VALID,0,VALID,19.6623,VALID,124,VALID,0.460547,
2009-12-27, 01:27:04,VALID,916.712,VALID,0,VALID,97.6026,VALID,0,VALID,19.6818,VALID,124,VALID,0.372656,
2009-12-27, 01:28:04,VALID,916.706,VALID,0,VALID,97.595,VALID,0,VALID,19.6818,VALID,124,VALID,0.298438,
2009-12-27, 01:29:04,VALID,916.694,VALID,0,VALID,97.5873,VALID,0,VALID,19.6413,VALID,124,VALID,0.0765625,
2009-12-27, 01:30:04,VALID,916.701,VALID,0,VALID,97.6178,VALID,0,VALID,19.7013,VALID,124,VALID,0.0773437,
2009-12-27, 01:31:04,VALID,916.667,VALID,0,VALID,97.6255,VALID,0,VALID,19.6998,VALID,124,VALID,0,
2009-12-27, 01:32:04,VALID,916.668,VALID,0,VALID,97.6102,VALID,0.107441,VALID,19.6998,VALID,124,VALID,0.215625,
2009-12-27, 01:33:04,VALID,916.665,VALID,0,VALID,97.5873,VALID,0.107441,VALID,19.6983,VALID,124,VALID,0.142578,
2009-12-27, 01:34:04,VALID,916.674,VALID,0,VALID,97.595,VALID,0.107441,VALID,19.6788,VALID,124,VALID,0.0117188,
2009-12-27, 01:35:04,VALID,916.63,VALID,0,VALID,97.5645,VALID,0,VALID,19.6803,VALID,124,VALID,0,
2009-12-27, 01:36:04,VALID,916.639,VALID,0,VALID,97.595,VALID,0.107441,VALID,19.6998,VALID,124,VALID,0,
2009-12-27, 01:37:04,VALID,916.617,VALID,0,VALID,97.5797,VALID,0.107441,VALID,19.6803,VALID,124,VALID,0,
2009-12-27, 01:38:04,VALID,916.614,VALID,0,VALID,97.6026,VALID,0.107441,VALID,19.6803,VALID,124,VALID,0.244922,
2009-12-27, 01:39:04,VALID,916.647,VALID,0,VALID,97.5797,VALID,0.107441,VALID,19.6608,VALID,124,VALID,0.210938,
2009-12-27, 01:40:04,VALID,916.618,VALID,0,VALID,97.5797,VALID,0.107441,VALID,19.6593,VALID,124,VALID,0,
2009-12-27, 01:41:04,VALID,916.595,VALID,0,VALID,97.5873,VALID,0.107441,VALID,19.6398,VALID,124,VALID,0,
2009-12-27, 01:42:04,VALID,916.601,VALID,0,VALID,97.6102,VALID,0.107441,VALID,19.6398,VALID,124,VALID,0,
2009-12-27, 01:43:04,VALID,916.59,VALID,0,VALID,97.6102,VALID,0.107441,VALID,19.6803,VALID,124,VALID,0,
2009-12-27, 01:44:04,VALID,916.555,VALID,0,VALID,97.5873,VALID,0.107441,VALID,19.6788,VALID,124,VALID,0,
2009-12-27, 01:45:04,VALID,916.56,VALID,0,VALID,97.6026,VALID,0.107441,VALID,19.6788,VALID,124,VALID,0,
2009-12-27, 01:46:04,VALID,916.549,VALID,0,VALID,97.595,VALID,0,VALID,19.6818,VALID,124,VALID,0,
2009-12-27, 01:47:04,VALID,916.516,VALID,0,VALID,97.5797,VALID,0,VALID,19.6623,VALID,124,VALID,0,
2009-12-27, 01:48:04,VALID,916.503,VALID,0,VALID,97.5873,VALID,0,VALID,19.6413,VALID,124,VALID,0.695313,
2009-12-27, 01:49:04,VALID,916.48,VALID,0,VALID,97.5721,VALID,0,VALID,19.6623,VALID,124,VALID,0.709375,
2009-12-27, 01:50:04,VALID,916.49,VALID,0,VALID,97.5873,VALID,0,VALID,19.6218,VALID,124,VALID,0.804688,
2009-12-27, 01:51:04,VALID,916.483,VALID,0,VALID,97.595,VALID,0,VALID,19.6413,VALID,124,VALID,0.905469,
2009-12-27, 01:52:04,VALID,916.465,VALID,0,VALID,97.595,VALID,0,VALID,19.6413,VALID,124,VALID,0.883984,
2009-12-27, 01:53:04,VALID,916.474,VALID,0,VALID,97.595,VALID,0,VALID,19.6608,VALID,124,VALID,0.596875,
2009-12-27, 01:54:04,VALID,916.454,VALID,0,VALID,97.6026,VALID,0,VALID,19.6623,VALID,124,VALID,0.799609,
2009-12-27, 01:55:05,VALID,916.454,VALID,0,VALID,97.6178,VALID,0,VALID,19.6623,VALID,124,VALID,0.283594,
2009-12-27, 01:56:05,VALID,916.443,VALID,0,VALID,97.6026,VALID,0,VALID,19.6608,VALID,124,VALID,0.239844,
2009-12-27, 01:57:05,VALID,916.425,VALID,0,VALID,97.5873,VALID,0,VALID,19.6428,VALID,124,VALID,0.504297,
2009-12-27, 01:58:05,VALID,916.393,VALID,0,VALID,97.595,VALID,0.107441,VALID,19.6623,VALID,124,VALID,0.396094,
2009-12-27, 01:59:05,VALID,916.396,VALID,0,VALID,97.5873,VALID,0,VALID,19.6218,VALID,124,VALID,0.626562,
2009-12-27, 02:00:05,VALID,916.377,VALID,0,VALID,97.595,VALID,0,VALID,19.6218,VALID,124,VALID,0.609766,
2009-12-27, 02:01:05,VALID,916.356,VALID,0,VALID,97.6102,VALID,0,VALID,19.6428,VALID,124,VALID,0.539453,
2009-12-27, 02:02:05,VALID,916.346,VALID,0,VALID,97.6102,VALID,0,VALID,19.6023,VALID,124,VALID,0.448828,
2009-12-27, 02:03:05,VALID,916.336,VALID,0,VALID,97.5416,VALID,0,VALID,19.6038,VALID,124,VALID,0.425,
2009-12-27, 02:04:05,VALID,916.332,VALID,0,VALID,97.5873,VALID,0,VALID,19.6038,VALID,124,VALID,0.583203,
2009-12-27, 02:05:05,VALID,916.304,VALID,0,VALID,97.5873,VALID,0,VALID,19.6038,VALID,124,VALID,0.592188,
2009-12-27, 02:06:05,VALID,916.29,VALID,0,VALID,97.595,VALID,0,VALID,19.5828,VALID,124,VALID,0.674609,
2009-12-27, 02:07:05,VALID,916.275,VALID,0,VALID,97.6255,VALID,0,VALID,19.5843,VALID,124,VALID,0.612109,
2009-12-27, 02:08:05,VALID,916.269,VALID,0,VALID,97.6026,VALID,0,VALID,19.5648,VALID,124,VALID,0.666797,
2009-12-27, 02:09:05,VALID,916.234,VALID,0,VALID,97.6178,VALID,0,VALID,19.5648,VALID,124,VALID,0.614062,
2009-12-27, 02:10:05,VALID,916.218,VALID,0,VALID,97.6178,VALID,0,VALID,19.5648,VALID,124,VALID,0.646094,
2009-12-27, 02:11:05,VALID,916.222,VALID,0,VALID,97.6255,VALID,0,VALID,19.5243,VALID,124,VALID,0.905469,
2009-12-27, 02:12:05,VALID,916.193,VALID,0,VALID,97.6407,VALID,0,VALID,19.5243,VALID,124,VALID,0.846094,
2009-12-27, 02:13:05,VALID,916.159,VALID,0,VALID,97.6255,VALID,0,VALID,19.5453,VALID,124,VALID,0.995313,
2009-12-27, 02:14:05,VALID,916.16,VALID,0,VALID,97.6102,VALID,0,VALID,19.5258,VALID,124,VALID,0.967578,
2009-12-27, 02:15:05,VALID,916.163,VALID,0,VALID,97.6102,VALID,0,VALID,19.5258,VALID,124,VALID,1.02461,
2009-12-27, 02:16:05,VALID,916.121,VALID,0,VALID,97.6407,VALID,0,VALID,19.5438,VALID,124,VALID,0.861719,
2009-12-27, 02:17:05,VALID,916.105,VALID,0,VALID,97.6178,VALID,0.107441,VALID,19.5033,VALID,124,VALID,0.873828,
2009-12-27, 02:18:05,VALID,916.09,VALID,0,VALID,97.6331,VALID,0,VALID,19.5243,VALID,124,VALID,0.959375,
2009-12-27, 02:19:05,VALID,916.055,VALID,0,VALID,97.6483,VALID,0,VALID,19.5243,VALID,125,VALID,1.00352,
2009-12-27, 02:20:05,VALID,916.047,VALID,0,VALID,97.6255,VALID,0.107441,VALID,19.5243,VALID,124,VALID,0.816797,
2009-12-27, 02:21:05,VALID,916.02,VALID,0,VALID,97.6407,VALID,0,VALID,19.5438,VALID,125,VALID,1.00156,
2009-12-27, 02:22:05,VALID,915.997,VALID,0,VALID,97.6407,VALID,0.107441,VALID,19.5438,VALID,125,VALID,0.999219,
2009-12-27, 02:23:05,VALID,915.997,VALID,0,VALID,97.6483,VALID,0.107441,VALID,19.5243,VALID,124,VALID,0.959766,
2009-12-27, 02:24:05,VALID,915.984,VALID,0,VALID,97.6407,VALID,0,VALID,19.5228,VALID,125,VALID,0.719141,
2009-12-27, 02:25:05,VALID,915.977,VALID,0,VALID,97.6483,VALID,0,VALID,19.5243,VALID,155,VALID,0.914844,
2009-12-27, 02:26:05,VALID,915.975,VALID,0,VALID,97.6865,VALID,0.107441,VALID,19.5438,VALID,155,VALID,0.886328,
2009-12-27, 02:27:05,VALID,915.932,VALID,0,VALID,97.6331,VALID,0,VALID,19.5033,VALID,155,VALID,0.801562,
2009-12-27, 02:28:05,VALID,915.925,VALID,0.2,VALID,97.6712,VALID,0.107441,VALID,19.5438,VALID,155,VALID,0.754297,
2009-12-27, 02:29:05,VALID,915.912,VALID,0,VALID,97.6407,VALID,0,VALID,19.5243,VALID,155,VALID,0.495703,
2009-12-27, 02:30:05,VALID,915.91,VALID,0,VALID,97.6407,VALID,0.107441,VALID,19.5243,VALID,155,VALID,0.836719,
2009-12-27, 02:31:05,VALID,915.88,VALID,0,VALID,97.656,VALID,0,VALID,19.5258,VALID,155,VALID,0.498047,
2009-12-27, 02:32:05,VALID,915.901,VALID,0,VALID,97.6407,VALID,0,VALID,19.5063,VALID,155,VALID,0.755078,
2009-12-27, 02:33:05,VALID,915.877,VALID,0,VALID,97.6407,VALID,0,VALID,19.5258,VALID,155,VALID,0.602734,
2009-12-27, 02:34:05,VALID,915.843,VALID,0,VALID,97.6483,VALID,0,VALID,19.5258,VALID,155,VALID,0.610937,
2009-12-27, 02:35:05,VALID,915.874,VALID,0,VALID,97.6483,VALID,0,VALID,19.5258,VALID,155,VALID,0.888672,
2009-12-27, 02:36:05,VALID,915.842,VALID,0,VALID,97.6636,VALID,0,VALID,19.5258,VALID,155,VALID,0.685547,
2009-12-27, 02:37:05,VALID,915.856,VALID,0,VALID,97.6712,VALID,0,VALID,19.5258,VALID,155,VALID,0.741406,
2009-12-27, 02:38:05,VALID,915.852,VALID,0,VALID,97.6407,VALID,0,VALID,19.5258,VALID,155,VALID,0.777734,
2009-12-27, 02:39:05,VALID,915.84,VALID,0,VALID,97.6712,VALID,0,VALID,19.5453,VALID,155,VALID,0.758594,
2009-12-27, 02:40:05,VALID,915.833,VALID,0,VALID,97.6941,VALID,0,VALID,19.5243,VALID,155,VALID,0.912891,
2009-12-27, 02:41:05,VALID,915.836,VALID,0,VALID,97.656,VALID,0,VALID,19.5648,VALID,155,VALID,0.759766,
2009-12-27, 02:42:05,VALID,915.83,VALID,0,VALID,97.6102,VALID,0,VALID,19.5453,VALID,155,VALID,0.764844,
2009-12-27, 02:43:05,VALID,915.824,VALID,0,VALID,97.6331,VALID,0,VALID,19.5453,VALID,155,VALID,0.446094,
2009-12-27, 02:44:05,VALID,915.804,VALID,0,VALID,97.6483,VALID,0,VALID,19.5453,VALID,155,VALID,0.662891,
2009-12-27, 02:45:05,VALID,915.793,VALID,0,VALID,97.6331,VALID,0,VALID,19.5648,VALID,155,VALID,0.788672,
2009-12-27, 02:46:05,VALID,915.793,VALID,0,VALID,97.6483,VALID,0,VALID,19.5648,VALID,155,VALID,0.738281,
2009-12-27, 02:47:05,VALID,915.777,VALID,0,VALID,97.6407,VALID,0,VALID,19.5648,VALID,155,VALID,0.869922,
2009-12-27, 02:48:05,VALID,915.744,VALID,0,VALID,97.6483,VALID,0,VALID,19.5453,VALID,154,VALID,0.724219,
2009-12-27, 02:49:05,VALID,915.766,VALID,0,VALID,97.6483,VALID,0,VALID,19.5648,VALID,154,VALID,0.868359,
2009-12-27, 02:50:05,VALID,915.73,VALID,0,VALID,97.6636,VALID,0,VALID,19.5648,VALID,154,VALID,0.616016,
2009-12-27, 02:51:05,VALID,915.747,VALID,0,VALID,97.6636,VALID,0,VALID,19.5843,VALID,154,VALID,0.661719,
2009-12-27, 02:52:05,VALID,915.695,VALID,0,VALID,97.6331,VALID,0,VALID,19.5648,VALID,154,VALID,0.571484,
2009-12-27, 02:53:05,VALID,915.707,VALID,0,VALID,97.6483,VALID,0,VALID,19.5453,VALID,154,VALID,0.338281,
2009-12-27, 02:54:05,VALID,915.676,VALID,0,VALID,97.6483,VALID,0,VALID,19.5453,VALID,154,VALID,0.578516,
2009-12-27, 02:55:05,VALID,915.641,VALID,0,VALID,97.6255,VALID,0,VALID,19.5453,VALID,154,VALID,0.666406,
2009-12-27, 02:56:05,VALID,915.668,VALID,0,VALID,97.656,VALID,0,VALID,19.5453,VALID,154,VALID,0.749219,
2009-12-27, 02:57:05,VALID,915.638,VALID,0,VALID,97.656,VALID,0,VALID,19.5663,VALID,154,VALID,0.832812,
2009-12-27, 02:58:05,VALID,915.63,VALID,0,VALID,97.656,VALID,0,VALID,19.5258,VALID,154,VALID,0.759766,
2009-12-27, 02:59:05,VALID,915.618,VALID,0,VALID,97.6331,VALID,0,VALID,19.5453,VALID,154,VALID,0.626172,
2009-12-27, 03:00:05,VALID,915.609,VALID,0,VALID,97.6331,VALID,0,VALID,19.5258,VALID,153,VALID,0.674609,
2009-12-27, 03:01:05,VALID,915.604,VALID,0,VALID,97.6255,VALID,0,VALID,19.5243,VALID,153,VALID,0.901563,
2009-12-27, 03:02:05,VALID,915.592,VALID,0,VALID,97.6255,VALID,0,VALID,19.5048,VALID,153,VALID,0.796875,
2009-12-27, 03:03:05,VALID,915.573,VALID,0,VALID,97.6331,VALID,0,VALID,19.5243,VALID,153,VALID,0.874609,
2009-12-27, 03:04:05,VALID,915.537,VALID,0,VALID,97.6102,VALID,0,VALID,19.5243,VALID,152,VALID,0.822656,
2009-12-27, 03:05:05,VALID,915.564,VALID,0,VALID,97.5873,VALID,0,VALID,19.5243,VALID,152,VALID,0.740234,
2009-12-27, 03:06:05,VALID,915.539,VALID,0,VALID,97.6102,VALID,0,VALID,19.5048,VALID,152,VALID,0.49375,
2009-12-27, 03:07:05,VALID,915.564,VALID,0,VALID,97.6102,VALID,0,VALID,19.5033,VALID,152,VALID,0.648828,
2009-12-27, 03:08:05,VALID,915.539,VALID,0,VALID,97.595,VALID,0,VALID,19.5048,VALID,152,VALID,0.567969,
2009-12-27, 03:09:05,VALID,915.516,VALID,0,VALID,97.6026,VALID,0,VALID,19.4853,VALID,152,VALID,0.983984,
2009-12-27, 03:10:05,VALID,915.505,VALID,0,VALID,97.5797,VALID,0,VALID,19.5048,VALID,152,VALID,0.904297,
2009-12-27, 03:11:05,VALID,915.505,VALID,0,VALID,97.5721,VALID,0,VALID,19.5048,VALID,152,VALID,0.647656,
2009-12-27, 03:12:05,VALID,915.517,VALID,0,VALID,97.5492,VALID,0,VALID,19.5048,VALID,151,VALID,0.639453,
2009-12-27, 03:13:05,VALID,915.514,VALID,0,VALID,97.534,VALID,0,VALID,19.5063,VALID,151,VALID,0.560156,
2009-12-27, 03:14:05,VALID,915.492,VALID,0,VALID,97.5416,VALID,0,VALID,19.4658,VALID,151,VALID,0.458594,
2009-12-27, 03:15:05,VALID,915.507,VALID,0,VALID,97.5492,VALID,0,VALID,19.4658,VALID,151,VALID,0.347656,
2009-12-27, 03:16:05,VALID,915.478,VALID,0,VALID,97.5645,VALID,0,VALID,19.4463,VALID,151,VALID,0.531641,
2009-12-27, 03:17:05,VALID,915.507,VALID,0,VALID,97.5645,VALID,0,VALID,19.4478,VALID,151,VALID,0.496875,
2009-12-27, 03:18:05,VALID,915.502,VALID,0,VALID,97.5797,VALID,0,VALID,19.4673,VALID,151,VALID,0.363281,
2009-12-27, 03:19:05,VALID,915.505,VALID,0,VALID,97.5797,VALID,0,VALID,19.4478,VALID,151,VALID,0.412109,
2009-12-27, 03:20:05,VALID,915.499,VALID,0,VALID,97.5416,VALID,0,VALID,19.4463,VALID,151,VALID,0.53125,
2009-12-27, 03:21:05,VALID,915.512,VALID,0,VALID,97.5492,VALID,0,VALID,19.4478,VALID,151,VALID,0.528125,
2009-12-27, 03:22:05,VALID,915.481,VALID,0,VALID,97.5416,VALID,0,VALID,19.4478,VALID,151,VALID,0.526563,
2009-12-27, 03:23:05,VALID,915.499,VALID,0,VALID,97.534,VALID,0,VALID,19.4268,VALID,151,VALID,0.453906,
2009-12-27, 03:24:05,VALID,915.509,VALID,0,VALID,97.5645,VALID,0,VALID,19.4283,VALID,151,VALID,0.440625,
2009-12-27, 03:25:05,VALID,915.516,VALID,0,VALID,97.5187,VALID,0,VALID,19.4283,VALID,151,VALID,0.541406,
2009-12-27, 03:26:05,VALID,915.513,VALID,0,VALID,97.5187,VALID,0,VALID,19.4088,VALID,151,VALID,0.539844,
2009-12-27, 03:27:05,VALID,915.469,VALID,0,VALID,97.5492,VALID,0,VALID,19.4088,VALID,151,VALID,0.453906,
2009-12-27, 03:28:05,VALID,915.502,VALID,0,VALID,97.5492,VALID,0,VALID,19.4283,VALID,151,VALID,0.317969,
2009-12-27, 03:29:05,VALID,915.494,VALID,0,VALID,97.5492,VALID,0,VALID,19.4088,VALID,151,VALID,0.313281,
2009-12-27, 03:30:05,VALID,915.466,VALID,0,VALID,97.5416,VALID,0,VALID,19.4088,VALID,151,VALID,0.353516,
2009-12-27, 03:31:05,VALID,915.498,VALID,0,VALID,97.5187,VALID,0,VALID,19.4088,VALID,151,VALID,0.319922,
2009-12-27, 03:32:05,VALID,915.455,VALID,0,VALID,97.5264,VALID,0,VALID,19.3684,VALID,151,VALID,0.460547,
2009-12-27, 03:33:05,VALID,915.479,VALID,0,VALID,97.534,VALID,0,VALID,19.3684,VALID,151,VALID,0.395703,
2009-12-27, 03:34:05,VALID,915.464,VALID,0,VALID,97.5721,VALID,0,VALID,19.3684,VALID,151,VALID,0.558594,
2009-12-27, 03:35:05,VALID,915.463,VALID,0,VALID,97.5416,VALID,0,VALID,19.3893,VALID,151,VALID,0.380859,
2009-12-27, 03:36:05,VALID,915.477,VALID,0,VALID,97.5492,VALID,0,VALID,19.4088,VALID,151,VALID,0.560938,
2009-12-27, 03:37:05,VALID,915.438,VALID,0,VALID,97.534,VALID,0,VALID,19.4088,VALID,151,VALID,0.186719,
2009-12-27, 03:38:05,VALID,915.448,VALID,0,VALID,97.5492,VALID,0,VALID,19.3893,VALID,151,VALID,0.246484,
2009-12-27, 03:39:05,VALID,915.425,VALID,0,VALID,97.5035,VALID,0,VALID,19.3503,VALID,151,VALID,0.286719,
2009-12-27, 03:40:05,VALID,915.455,VALID,0,VALID,97.4654,VALID,0,VALID,19.3308,VALID,151,VALID,0,
2009-12-27, 03:41:05,VALID,915.438,VALID,0,VALID,97.473,VALID,0,VALID,19.3113,VALID,151,VALID,0,
2009-12-27, 03:42:05,VALID,915.443,VALID,0,VALID,97.4806,VALID,0,VALID,19.2904,VALID,151,VALID,0,
2009-12-27, 03:43:05,VALID,915.468,VALID,0,VALID,97.4806,VALID,0,VALID,19.2723,VALID,151,VALID,0,
2009-12-27, 03:44:05,VALID,915.477,VALID,0,VALID,97.5416,VALID,0,VALID,19.2918,VALID,151,VALID,0.0902344,